Time,TemperatureF,DewpointF,PressureIn,WindDirection,WindDirectionDegrees,WindSpeedMPH,WindSpeedGustMPH,Humidity,HourlyPrecipIn,Conditions,Clouds,dailyrainin,SoftwareType,DateUTC
2013-02-09 00:00:00,20.5,18.5,29.65,NNW,339,6.0,6.0,92,0.00,,,0.00,Wunderground v.1.15,2013-02-09 05:00:00,
2013-02-09 00:05:00,20.3,18.3,29.67,NNE,32,6.0,6.0,92,0.00,,,0.00,Wunderground v.1.15,2013-02-09 05:05:00,
2013-02-09 00:10:00,20.3,18.3,29.67,NNE,12,5.0,5.0,92,0.00,,,0.00,Wunderground v.1.15,2013-02-09 05:10:00,
2013-02-09 00:15:00,20.3,18.3,29.67,NNW,346,5.0,5.0,92,0.00,,,0.00,Wunderground v.1.15,2013-02-09 05:15:00,
2013-02-09 00:20:00,20.3,18.3,29.68,NNW,334,5.0,5.0,92,0.00,,,0.00,Wunderground v.1.15,2013-02-09 05:20:00,
2013-02-09 00:30:00,20.5,18.5,29.68,NNE,17,6.0,6.0,92,0.00,,,0.00,Wunderground v.1.15,2013-02-09 05:30:00,
2013-02-09 00:35:00,20.5,18.5,29.68,WNW,293,6.0,6.0,92,0.00,,,0.00,Wunderground v.1.15,2013-02-09 05:35:00,
2013-02-09 00:40:00,20.5,18.5,29.68,NW,326,6.0,10.0,92,0.00,,,0.00,Wunderground v.1.15,2013-02-09 05:40:00,
2013-02-09 00:45:00,20.3,18.3,29.68,NNE,13,6.0,10.0,92,0.00,,,0.00,Wunderground v.1.15,2013-02-09 05:45:00,
2013-02-09 00:50:00,20.3,18.3,29.66,NNW,340,6.0,6.0,92,0.00,,,0.00,Wunderground v.1.15,2013-02-09 05:50:00,
2013-02-09 00:55:00,20.3,18.3,29.66,North,350,6.0,6.0,92,0.00,,,0.00,Wunderground v.1.15,2013-02-09 05:55:00,
2013-02-09 01:00:00,20.3,18.3,29.66,North,355,5.0,5.0,92,0.00,,,0.00,Wunderground v.1.15,2013-02-09 06:00:00,
2013-02-09 01:10:00,20.3,18.3,29.67,NW,320,6.0,6.0,92,0.00,,,0.00,Wunderground v.1.15,2013-02-09 06:10:00,
2013-02-09 01:15:00,20.3,18.3,29.67,North,5,7.0,13.0,92,0.00,,,0.00,Wunderground v.1.15,2013-02-09 06:15:00,
2013-02-09 01:20:00,20.3,18.3,29.67,NNW,336,7.0,7.0,92,0.00,,,0.00,Wunderground v.1.15,2013-02-09 06:20:00,
2013-02-09 01:30:00,20.5,18.5,29.67,North,349,6.0,6.0,92,0.00,,,0.00,Wunderground v.1.15,2013-02-09 06:30:00,
2013-02-09 01:40:00,20.6,18.6,29.67,NNW,340,5.0,5.0,92,0.00,,,0.00,Wunderground v.1.15,2013-02-09 06:40:00,
2013-02-09 01:45:00,20.6,18.6,29.67,North,360,4.0,5.0,92,0.00,,,0.00,Wunderground v.1.15,2013-02-09 06:45:00,
2013-02-09 01:55:00,20.8,18.8,29.68,NW,321,6.0,10.0,92,0.00,,,0.00,Wunderground v.1.15,2013-02-09 06:55:00,
2013-02-09 02:05:00,21.0,19.0,29.68,NNW,342,6.0,7.0,92,0.00,,,0.00,Wunderground v.1.15,2013-02-09 07:05:00,
2013-02-09 02:10:00,21.0,19.0,29.68,North,349,5.0,5.0,92,0.00,,,0.00,Wunderground v.1.15,2013-02-09 07:10:00,
2013-02-09 02:20:00,21.1,19.1,29.68,North,349,6.0,6.0,92,0.00,,,0.00,Wunderground v.1.15,2013-02-09 07:20:00,
2013-02-09 02:30:00,21.1,19.1,29.68,North,360,4.0,5.0,92,0.00,,,0.00,Wunderground v.1.15,2013-02-09 07:30:00,
2013-02-09 02:35:00,21.1,19.1,29.68,NNE,23,5.0,5.0,92,0.00,,,0.00,Wunderground v.1.15,2013-02-09 07:35:00,
2013-02-09 02:45:00,21.4,19.7,29.68,NNW,329,6.0,8.0,93,0.00,,,0.00,Wunderground v.1.15,2013-02-09 07:45:00,
2013-02-09 02:50:00,21.6,19.9,29.67,NNW,340,5.0,5.0,93,0.00,,,0.00,Wunderground v.1.15,2013-02-09 07:50:00,
2013-02-09 02:55:00,21.8,20.1,29.67,NNW,331,4.0,5.0,93,0.00,,,0.00,Wunderground v.1.15,2013-02-09 07:55:00,
2013-02-09 03:00:00,21.9,20.2,29.67,North,360,6.0,6.0,93,0.00,,,0.00,Wunderground v.1.15,2013-02-09 08:00:00,
2013-02-09 03:10:00,22.4,20.7,29.68,NNW,347,6.0,6.0,93,0.00,,,0.00,Wunderground v.1.15,2013-02-09 08:10:00,
2013-02-09 03:15:00,22.5,20.8,29.68,North,350,6.0,6.0,93,0.00,,,0.00,Wunderground v.1.15,2013-02-09 08:15:00,
2013-02-09 03:25:00,22.7,21.0,29.68,NNE,20,5.0,7.0,93,0.00,,,0.00,Wunderground v.1.15,2013-02-09 08:25:00,
2013-02-09 03:30:00,22.9,21.2,29.68,North,360,5.0,7.0,93,0.00,,,0.00,Wunderground v.1.15,2013-02-09 08:30:00,
2013-02-09 03:35:00,23.0,21.3,29.68,NW,308,6.0,8.0,93,0.00,,,0.00,Wunderground v.1.15,2013-02-09 08:35:00,
2013-02-09 03:40:00,23.2,21.5,29.68,North,360,6.0,6.0,93,0.00,,,0.00,Wunderground v.1.15,2013-02-09 08:40:00,
2013-02-09 03:45:00,23.2,21.5,29.68,NNW,327,5.0,6.0,93,0.00,,,0.00,Wunderground v.1.15,2013-02-09 08:45:00,
2013-02-09 03:55:00,23.5,21.8,29.68,WNW,301,6.0,10.0,93,0.00,,,0.00,Wunderground v.1.15,2013-02-09 08:55:00,
2013-02-09 04:00:00,23.5,21.8,29.68,NNW,343,5.0,5.0,93,0.00,,,0.00,Wunderground v.1.15,2013-02-09 09:00:00,
2013-02-09 04:10:00,23.6,21.9,29.69,NNW,348,4.0,4.0,93,0.00,,,0.00,Wunderground v.1.15,2013-02-09 09:10:00,
2013-02-09 04:20:00,23.6,21.9,29.69,NNW,346,5.0,5.0,93,0.00,,,0.00,Wunderground v.1.15,2013-02-09 09:20:00,
2013-02-09 04:25:00,23.6,21.9,29.69,North,5,5.0,5.0,93,0.00,,,0.00,Wunderground v.1.15,2013-02-09 09:25:00,
2013-02-09 04:35:00,23.8,22.3,29.70,NNW,330,5.0,10.0,94,0.00,,,0.00,Wunderground v.1.15,2013-02-09 09:35:00,
2013-02-09 04:40:00,23.9,22.4,29.70,NNW,348,4.0,6.0,94,0.00,,,0.00,Wunderground v.1.15,2013-02-09 09:40:00,
2013-02-09 04:50:00,24.1,22.6,29.70,North,355,4.0,5.0,94,0.00,,,0.00,Wunderground v.1.15,2013-02-09 09:50:00,
2013-02-09 05:00:00,24.4,22.9,29.70,North,355,5.0,6.0,94,0.00,,,0.00,Wunderground v.1.15,2013-02-09 10:00:00,
2013-02-09 05:10:00,24.5,23.0,29.71,WNW,292,6.0,6.0,94,0.00,,,0.00,Wunderground v.1.15,2013-02-09 10:10:00,
2013-02-09 05:15:00,24.5,23.0,29.71,NNW,345,4.0,6.0,94,0.00,,,0.00,Wunderground v.1.15,2013-02-09 10:15:00,
2013-02-09 05:20:00,24.5,23.0,29.70,NNW,344,5.0,12.0,94,0.00,,,0.00,Wunderground v.1.15,2013-02-09 10:20:00,
2013-02-09 05:30:00,24.5,23.0,29.70,NNE,22,4.0,8.0,94,0.00,,,0.00,Wunderground v.1.15,2013-02-09 10:30:00,
2013-02-09 05:35:00,24.4,22.9,29.70,NNW,334,4.0,8.0,94,0.00,,,0.00,Wunderground v.1.15,2013-02-09 10:35:00,
2013-02-09 05:40:00,24.4,22.9,29.70,NNW,336,4.0,4.0,94,0.00,,,0.00,Wunderground v.1.15,2013-02-09 10:40:00,
2013-02-09 05:50:00,24.1,22.4,29.71,NNW,327,5.0,7.0,93,0.00,,,0.00,Wunderground v.1.15,2013-02-09 10:50:00,
2013-02-09 05:55:00,23.9,22.2,29.71,NNW,348,4.0,7.0,93,0.00,,,0.00,Wunderground v.1.15,2013-02-09 10:55:00,
2013-02-09 06:00:00,23.8,22.1,29.71,North,355,3.0,6.0,93,0.00,,,0.00,Wunderground v.1.15,2013-02-09 11:00:00,
2013-02-09 06:05:00,23.5,21.8,29.73,NW,315,4.0,6.0,93,0.00,,,0.00,Wunderground v.1.15,2013-02-09 11:05:00,
2013-02-09 06:15:00,23.0,21.3,29.73,North,350,3.0,7.0,93,0.00,,,0.00,Wunderground v.1.15,2013-02-09 11:15:00,
2013-02-09 06:25:00,22.7,21.0,29.74,NNW,344,3.0,4.0,93,0.00,,,0.00,Wunderground v.1.15,2013-02-09 11:25:00,
2013-02-09 06:30:00,22.7,21.0,29.74,NNW,332,2.0,2.0,93,0.00,,,0.00,Wunderground v.1.15,2013-02-09 11:30:00,
2013-02-09 06:35:00,22.7,21.0,29.75,NNW,327,1.0,4.0,93,0.00,,,0.00,Wunderground v.1.15,2013-02-09 11:35:00,
2013-02-09 06:45:00,22.5,20.8,29.75,NE,39,2.0,2.0,93,0.00,,,0.00,Wunderground v.1.15,2013-02-09 11:45:00,
2013-02-09 06:55:00,22.2,20.5,29.75,North,350,3.0,9.0,93,0.00,,,0.00,Wunderground v.1.15,2013-02-09 11:55:00,
2013-02-09 07:05:00,22.1,20.1,29.76,NNW,346,2.0,4.0,92,0.00,,,0.00,Wunderground v.1.15,2013-02-09 12:05:00,
2013-02-09 07:10:00,22.1,20.1,29.76,NNW,347,3.0,3.0,92,0.00,,,0.00,Wunderground v.1.15,2013-02-09 12:10:00,
2013-02-09 07:20:00,21.8,19.8,29.77,NNE,13,6.0,7.0,92,0.00,,,0.00,Wunderground v.1.15,2013-02-09 12:20:00,
2013-02-09 07:25:00,21.6,19.6,29.77,NW,317,5.0,7.0,92,0.00,,,0.00,Wunderground v.1.15,2013-02-09 12:25:00,
2013-02-09 07:30:00,21.6,19.6,29.77,NW,319,4.0,4.0,92,0.00,,,0.00,Wunderground v.1.15,2013-02-09 12:30:00,
2013-02-09 07:40:00,21.4,19.4,29.77,NNW,327,3.0,3.0,92,0.00,,,0.00,Wunderground v.1.15,2013-02-09 12:40:00,
2013-02-09 07:45:00,21.3,19.1,29.77,NNW,330,4.0,4.0,91,0.00,,,0.00,Wunderground v.1.15,2013-02-09 12:45:00,
2013-02-09 07:55:00,20.8,18.6,29.79,NNW,346,5.0,6.0,91,0.00,,,0.00,Wunderground v.1.15,2013-02-09 12:55:00,
2013-02-09 08:05:00,20.6,18.4,29.79,NNW,336,5.0,7.0,91,0.00,,,0.00,Wunderground v.1.15,2013-02-09 13:05:00,
2013-02-09 08:10:00,20.5,18.3,29.79,NNW,342,5.0,5.0,91,0.00,,,0.00,Wunderground v.1.15,2013-02-09 13:10:00,
2013-02-09 08:20:00,20.5,18.3,29.80,WNW,289,5.0,7.0,91,0.00,,,0.00,Wunderground v.1.15,2013-02-09 13:20:00,
2013-02-09 08:30:00,20.3,17.8,29.80,NNW,342,6.0,8.0,90,0.00,,,0.00,Wunderground v.1.15,2013-02-09 13:30:00,
2013-02-09 08:40:00,20.3,17.8,29.81,NNW,342,6.0,10.0,90,0.00,,,0.00,Wunderground v.1.15,2013-02-09 13:40:00,
2013-02-09 08:50:00,20.2,17.7,29.82,NW,321,6.0,6.0,90,0.00,,,0.00,Wunderground v.1.15,2013-02-09 13:50:00,
2013-02-09 08:55:00,20.2,17.7,29.82,North,360,6.0,8.0,90,0.00,,,0.00,Wunderground v.1.15,2013-02-09 13:55:00,
2013-02-09 09:05:00,20.3,17.8,29.82,NNW,340,6.0,7.0,90,0.00,,,0.00,Wunderground v.1.15,2013-02-09 14:05:00,
2013-02-09 09:10:00,20.2,17.5,29.82,North,355,6.0,10.0,89,0.00,,,0.00,Wunderground v.1.15,2013-02-09 14:10:00,
2013-02-09 09:15:00,20.2,17.5,29.82,NW,317,7.0,10.0,89,0.00,,,0.00,Wunderground v.1.15,2013-02-09 14:15:00,
2013-02-09 09:25:00,19.9,17.2,29.82,NW,320,6.0,10.0,89,0.00,,,0.00,Wunderground v.1.15,2013-02-09 14:25:00,
2013-02-09 09:30:00,19.9,17.2,29.82,NNW,342,7.0,7.0,89,0.00,,,0.00,Wunderground v.1.15,2013-02-09 14:30:00,
2013-02-09 09:40:00,19.9,17.2,29.83,NNW,337,7.0,7.0,89,0.00,,,0.00,Wunderground v.1.15,2013-02-09 14:40:00,
2013-02-09 09:45:00,19.9,17.2,29.83,NNW,343,7.0,7.0,89,0.00,,,0.00,Wunderground v.1.15,2013-02-09 14:45:00,
2013-02-09 09:50:00,19.7,16.7,29.83,NNE,24,7.0,12.0,88,0.00,,,0.00,Wunderground v.1.15,2013-02-09 14:50:00,
2013-02-09 10:00:00,20.0,17.3,29.83,NNE,30,6.0,6.0,89,0.00,,,0.00,Wunderground v.1.15,2013-02-09 15:00:00,
2013-02-09 10:05:00,20.2,17.2,29.85,WNW,298,5.0,9.0,88,0.00,,,0.00,Wunderground v.1.15,2013-02-09 15:05:00,
2013-02-09 10:15:00,20.3,17.0,29.85,NW,316,7.0,7.0,87,0.00,,,0.00,Wunderground v.1.15,2013-02-09 15:15:00,
2013-02-09 10:25:00,20.6,17.3,29.86,NNE,22,5.0,6.0,87,0.00,,,0.00,Wunderground v.1.15,2013-02-09 15:25:00,
2013-02-09 10:35:00,20.8,17.3,29.86,NNW,347,6.0,8.0,86,0.00,,,0.00,Wunderground v.1.15,2013-02-09 15:35:00,
2013-02-09 10:45:00,20.6,16.5,29.86,NNW,346,6.0,10.0,84,0.00,,,0.00,Wunderground v.1.15,2013-02-09 15:45:00,
2013-02-09 10:50:00,20.6,16.5,29.87,NNW,329,7.0,7.0,84,0.00,,,0.00,Wunderground v.1.15,2013-02-09 15:50:00,
2013-02-09 10:55:00,20.6,16.3,29.87,NNW,333,7.0,7.0,83,0.00,,,0.00,Wunderground v.1.15,2013-02-09 15:55:00,
2013-02-09 11:00:00,21.0,16.9,29.87,NNW,334,6.0,7.0,84,0.00,,,0.00,Wunderground v.1.15,2013-02-09 16:00:00,
2013-02-09 11:05:00,21.0,16.6,29.88,WNW,284,6.0,7.0,83,0.00,,,0.00,Wunderground v.1.15,2013-02-09 16:05:00,
2013-02-09 11:15:00,21.1,16.5,29.88,WNW,288,6.0,9.0,82,0.00,,,0.00,Wunderground v.1.15,2013-02-09 16:15:00,
2013-02-09 11:25:00,21.3,16.1,29.88,West,278,7.0,7.0,80,0.00,,,0.00,Wunderground v.1.15,2013-02-09 16:25:00,
2013-02-09 11:35:00,21.4,15.6,29.89,North,9,8.0,8.0,78,0.00,,,0.00,Wunderground v.1.15,2013-02-09 16:35:00,
2013-02-09 11:45:00,21.9,16.7,29.89,WNW,290,6.0,7.0,80,0.00,,,0.00,Wunderground v.1.15,2013-02-09 16:45:00,
2013-02-09 11:50:00,22.1,16.3,29.89,North,5,7.0,8.0,78,0.00,,,0.00,Wunderground v.1.15,2013-02-09 16:50:00,
2013-02-09 11:55:00,21.9,14.3,29.89,NNE,17,8.0,14.0,72,0.00,,,0.00,Wunderground v.1.15,2013-02-09 16:55:00,
2013-02-09 12:00:00,22.1,16.0,29.89,NNE,27,8.0,12.0,77,0.00,,,0.00,Wunderground v.1.15,2013-02-09 17:00:00,
2013-02-09 12:10:00,22.1,15.7,29.90,NW,317,8.0,8.0,76,0.00,,,0.00,Wunderground v.1.15,2013-02-09 17:10:00,
2013-02-09 12:15:00,21.9,15.5,29.90,WNW,293,7.0,8.0,76,0.00,,,0.00,Wunderground v.1.15,2013-02-09 17:15:00,
2013-02-09 12:25:00,21.8,14.8,29.91,NNE,15,8.0,8.0,74,0.00,,,0.00,Wunderground v.1.15,2013-02-09 17:25:00,
2013-02-09 12:30:00,22.1,15.4,29.91,NNW,348,7.0,7.0,75,0.00,,,0.00,Wunderground v.1.15,2013-02-09 17:30:00,
2013-02-09 12:40:00,22.5,15.5,29.90,NW,318,7.0,7.0,74,0.00,,,0.00,Wunderground v.1.15,2013-02-09 17:40:00,
2013-02-09 12:45:00,22.9,13.9,29.90,NNW,327,8.0,8.0,68,0.00,,,0.00,Wunderground v.1.15,2013-02-09 17:45:00,
2013-02-09 12:50:00,22.7,13.0,29.90,SSW,194,9.0,9.0,66,0.00,,,0.00,Wunderground v.1.15,2013-02-09 17:50:00,
2013-02-09 13:00:00,22.9,13.6,29.90,NW,304,9.0,9.0,67,0.00,,,0.00,Wunderground v.1.15,2013-02-09 18:00:00,
2013-02-09 13:10:00,22.7,13.4,29.91,NNW,341,8.0,8.0,67,0.00,,,0.00,Wunderground v.1.15,2013-02-09 18:10:00,
2013-02-09 13:20:00,22.5,12.5,29.91,North,11,7.0,7.0,65,0.00,,,0.00,Wunderground v.1.15,2013-02-09 18:20:00,
2013-02-09 13:30:00,22.9,12.9,29.91,NNW,327,6.0,7.0,65,0.00,,,0.00,Wunderground v.1.15,2013-02-09 18:30:00,
2013-02-09 13:35:00,23.0,12.3,29.92,NNE,29,7.0,7.0,63,0.00,,,0.00,Wunderground v.1.15,2013-02-09 18:35:00,
2013-02-09 13:40:00,23.3,13.6,29.92,North,5,6.0,6.0,66,0.00,,,0.00,Wunderground v.1.15,2013-02-09 18:40:00,
2013-02-09 13:50:00,23.6,12.1,29.93,NNW,333,6.0,9.0,61,0.00,,,0.00,Wunderground v.1.15,2013-02-09 18:50:00,
2013-02-09 13:55:00,23.6,12.1,29.93,NW,314,7.0,9.0,61,0.00,,,0.00,Wunderground v.1.15,2013-02-09 18:55:00,
2013-02-09 14:05:00,23.0,10.4,29.94,NNW,347,9.0,15.0,58,0.00,,,0.00,Wunderground v.1.15,2013-02-09 19:05:00,
2013-02-09 14:15:00,22.7,10.1,29.94,NNW,333,9.0,9.0,58,0.00,,,0.00,Wunderground v.1.15,2013-02-09 19:15:00,
2013-02-09 14:20:00,23.2,11.4,29.94,North,360,8.0,8.0,60,0.00,,,0.00,Wunderground v.1.15,2013-02-09 19:20:00,
2013-02-09 14:25:00,23.2,12.1,29.94,NNW,336,8.0,8.0,62,0.00,,,0.00,Wunderground v.1.15,2013-02-09 19:25:00,
2013-02-09 14:30:00,23.2,11.7,29.94,NNW,331,8.0,8.0,61,0.00,,,0.00,Wunderground v.1.15,2013-02-09 19:30:00,
2013-02-09 14:40:00,23.3,13.3,29.96,North,360,8.0,12.0,65,0.00,,,0.00,Wunderground v.1.15,2013-02-09 19:40:00,
2013-02-09 14:50:00,23.9,12.4,29.96,NNW,333,5.0,7.0,61,0.00,,,0.00,Wunderground v.1.15,2013-02-09 19:50:00,
2013-02-09 14:55:00,23.9,12.4,29.96,NW,309,6.0,9.0,61,0.00,,,0.00,Wunderground v.1.15,2013-02-09 19:55:00,
2013-02-09 15:05:00,24.1,10.2,29.97,North,355,7.0,12.0,55,0.00,,,0.00,Wunderground v.1.15,2013-02-09 20:05:00,
2013-02-09 15:10:00,24.2,9.1,29.97,North,360,6.0,15.0,52,0.00,,,0.00,Wunderground v.1.15,2013-02-09 20:10:00,
2013-02-09 15:15:00,24.1,9.8,29.97,North,5,7.0,15.0,54,0.00,,,0.00,Wunderground v.1.15,2013-02-09 20:15:00,
2013-02-09 15:20:00,24.1,8.6,29.98,NE,46,8.0,10.0,51,0.00,,,0.00,Wunderground v.1.15,2013-02-09 20:20:00,
2013-02-09 15:30:00,24.1,7.7,29.98,NNE,17,9.0,13.0,49,0.00,,,0.00,Wunderground v.1.15,2013-02-09 20:30:00,
2013-02-09 15:40:00,24.4,6.6,29.99,North,5,7.0,7.0,46,0.00,,,0.00,Wunderground v.1.15,2013-02-09 20:40:00,
2013-02-09 15:50:00,24.7,3.2,29.99,NW,325,9.0,9.0,39,0.00,,,0.00,Wunderground v.1.15,2013-02-09 20:50:00,
2013-02-09 15:55:00,24.8,3.9,29.99,NE,34,8.0,9.0,40,0.00,,,0.00,Wunderground v.1.15,2013-02-09 20:55:00,
2013-02-09 16:00:00,25.0,3.5,29.99,NNW,338,7.0,11.0,39,0.00,,,0.00,Wunderground v.1.15,2013-02-09 21:00:00,
2013-02-09 16:05:00,25.0,2.9,30.00,NNE,13,9.0,11.0,38,0.00,,,0.00,Wunderground v.1.15,2013-02-09 21:05:00,
2013-02-09 16:10:00,25.1,2.4,30.00,North,355,9.0,10.0,37,0.00,,,0.00,Wunderground v.1.15,2013-02-09 21:10:00,
2013-02-09 16:15:00,25.1,1.2,30.00,NNW,327,8.0,12.0,35,0.00,,,0.00,Wunderground v.1.15,2013-02-09 21:15:00,
2013-02-09 16:25:00,25.1,2.4,30.02,North,5,6.0,7.0,37,0.00,,,0.00,Wunderground v.1.15,2013-02-09 21:25:00,
2013-02-09 16:35:00,24.8,0.4,30.03,North,355,8.0,8.0,34,0.00,,,0.00,Wunderground v.1.15,2013-02-09 21:35:00,
2013-02-09 16:45:00,24.7,0.3,30.03,West,276,8.0,8.0,34,0.00,,,0.00,Wunderground v.1.15,2013-02-09 21:45:00,
2013-02-09 16:55:00,24.7,-1.0,30.04,NNW,333,9.0,9.0,32,0.00,,,0.00,Wunderground v.1.15,2013-02-09 21:55:00,
2013-02-09 17:00:00,24.5,-0.5,30.04,NNW,339,9.0,14.0,33,0.00,,,0.00,Wunderground v.1.15,2013-02-09 22:00:00,
2013-02-09 17:05:00,24.5,-0.5,30.05,NNW,338,8.0,14.0,33,0.00,,,0.00,Wunderground v.1.15,2013-02-09 22:05:00,
2013-02-09 17:10:00,24.4,1.8,30.05,North,355,7.0,7.0,37,0.00,,,0.00,Wunderground v.1.15,2013-02-09 22:10:00,
2013-02-09 17:20:00,24.2,-0.2,30.07,NNW,342,7.0,7.0,34,0.00,,,0.00,Wunderground v.1.15,2013-02-09 22:20:00,
2013-02-09 17:30:00,24.1,0.3,30.07,NW,323,6.0,6.0,35,0.00,,,0.00,Wunderground v.1.15,2013-02-09 22:30:00,
2013-02-09 17:40:00,23.9,-0.4,30.08,NNW,344,7.0,7.0,34,0.00,,,0.00,Wunderground v.1.15,2013-02-09 22:40:00,
2013-02-09 17:45:00,23.9,-0.4,30.08,NNW,330,6.0,7.0,34,0.00,,,0.00,Wunderground v.1.15,2013-02-09 22:45:00,
2013-02-09 17:50:00,23.8,0.7,30.09,NNW,338,6.0,6.0,36,0.00,,,0.00,Wunderground v.1.15,2013-02-09 22:50:00,
2013-02-09 18:00:00,23.6,1.1,30.09,NNW,338,6.0,6.0,37,0.00,,,0.00,Wunderground v.1.15,2013-02-09 23:00:00,
2013-02-09 18:05:00,23.6,0.5,30.10,NNW,335,5.0,6.0,36,0.00,,,0.00,Wunderground v.1.15,2013-02-09 23:05:00,
2013-02-09 18:15:00,23.3,0.8,30.10,NE,37,4.0,11.0,37,0.00,,,0.00,Wunderground v.1.15,2013-02-09 23:15:00,
2013-02-09 18:20:00,23.5,1.0,30.11,NNW,329,5.0,5.0,37,0.00,,,0.00,Wunderground v.1.15,2013-02-09 23:20:00,
2013-02-09 18:30:00,23.5,1.6,30.11,NNW,346,5.0,5.0,38,0.00,,,0.00,Wunderground v.1.15,2013-02-09 23:30:00,
2013-02-09 18:35:00,23.5,0.4,30.12,NNW,327,5.0,5.0,36,0.00,,,0.00,Wunderground v.1.15,2013-02-09 23:35:00,
2013-02-09 18:40:00,23.3,1.4,30.12,NNW,336,4.0,7.0,38,0.00,,,0.00,Wunderground v.1.15,2013-02-09 23:40:00,
2013-02-09 18:45:00,23.3,1.4,30.12,NW,325,3.0,8.0,38,0.00,,,0.00,Wunderground v.1.15,2013-02-09 23:45:00,
2013-02-09 18:55:00,23.3,1.4,30.13,NNW,341,4.0,9.0,38,0.00,,,0.00,Wunderground v.1.15,2013-02-09 23:55:00,
2013-02-09 19:05:00,23.2,0.7,30.14,NNW,335,3.0,4.0,37,0.00,,,0.00,Wunderground v.1.15,2013-02-10 00:05:00,
2013-02-09 19:15:00,23.2,1.3,30.14,NW,313,4.0,5.0,38,0.00,,,0.00,Wunderground v.1.15,2013-02-10 00:15:00,
2013-02-09 19:25:00,22.9,2.1,30.14,NNE,13,3.0,7.0,40,0.00,,,0.00,Wunderground v.1.15,2013-02-10 00:25:00,
2013-02-09 19:35:00,22.9,1.0,30.15,NNW,338,4.0,4.0,38,0.00,,,0.00,Wunderground v.1.15,2013-02-10 00:35:00,
2013-02-09 19:40:00,22.9,2.1,30.15,NW,311,4.0,4.0,40,0.00,,,0.00,Wunderground v.1.15,2013-02-10 00:40:00,
2013-02-09 19:45:00,22.7,1.4,30.15,North,350,5.0,6.0,39,0.00,,,0.00,Wunderground v.1.15,2013-02-10 00:45:00,
2013-02-09 19:50:00,22.7,2.5,30.16,NNW,334,4.0,4.0,41,0.00,,,0.00,Wunderground v.1.15,2013-02-10 00:50:00,
2013-02-09 20:00:00,22.5,1.8,30.16,NNE,17,4.0,7.0,40,0.00,,,0.00,Wunderground v.1.15,2013-02-10 01:00:00,
2013-02-09 20:05:00,22.4,1.7,30.16,NE,40,4.0,7.0,40,0.00,,,0.00,Wunderground v.1.15,2013-02-10 01:05:00,
2013-02-09 20:15:00,22.4,1.7,30.16,NE,36,4.0,4.0,40,0.00,,,0.00,Wunderground v.1.15,2013-02-10 01:15:00,
2013-02-09 20:25:00,22.1,1.4,30.17,NNW,342,3.0,6.0,40,0.00,,,0.00,Wunderground v.1.15,2013-02-10 01:25:00,
2013-02-09 20:35:00,21.8,1.1,30.18,North,360,3.0,8.0,40,0.00,,,0.00,Wunderground v.1.15,2013-02-10 01:35:00,
2013-02-09 20:40:00,21.6,1.5,30.18,North,355,2.0,2.0,41,0.00,,,0.00,Wunderground v.1.15,2013-02-10 01:40:00,
2013-02-09 20:45:00,21.6,1.0,30.18,NNW,342,2.0,4.0,40,0.00,,,0.00,Wunderground v.1.15,2013-02-10 01:45:00,
2013-02-09 20:55:00,21.4,0.8,30.19,NNW,344,3.0,3.0,40,0.00,,,0.00,Wunderground v.1.15,2013-02-10 01:55:00,
2013-02-09 21:00:00,21.6,-0.1,30.19,North,10,4.0,5.0,38,0.00,,,0.00,Wunderground v.1.15,2013-02-10 02:00:00,
2013-02-09 21:10:00,21.4,-0.3,30.19,NNW,336,4.0,4.0,38,0.00,,,0.00,Wunderground v.1.15,2013-02-10 02:10:00,
2013-02-09 21:15:00,21.4,-0.3,30.19,NNW,339,4.0,5.0,38,0.00,,,0.00,Wunderground v.1.15,2013-02-10 02:15:00,
2013-02-09 21:20:00,21.4,0.2,30.20,NNW,342,4.0,9.0,39,0.00,,,0.00,Wunderground v.1.15,2013-02-10 02:20:00,
2013-02-09 21:30:00,21.3,-1.0,30.20,NNW,337,5.0,5.0,37,0.00,,,0.00,Wunderground v.1.15,2013-02-10 02:30:00,
2013-02-09 21:35:00,21.1,0.5,30.20,NNW,344,4.0,5.0,40,0.00,,,0.00,Wunderground v.1.15,2013-02-10 02:35:00,
2013-02-09 21:40:00,21.0,-0.7,30.20,NNW,347,3.0,6.0,38,0.00,,,0.00,Wunderground v.1.15,2013-02-10 02:40:00,
2013-02-09 21:50:00,20.6,-0.5,30.22,NE,46,3.0,6.0,39,0.00,,,0.00,Wunderground v.1.15,2013-02-10 02:50:00,
2013-02-09 21:55:00,20.6,-0.5,30.22,North,350,3.0,6.0,39,0.00,,,0.00,Wunderground v.1.15,2013-02-10 02:55:00,
2013-02-09 22:05:00,20.3,-0.2,30.22,WNW,297,4.0,8.0,40,0.00,,,0.00,Wunderground v.1.15,2013-02-10 03:05:00,
2013-02-09 22:15:00,20.2,0.2,30.22,NW,311,3.0,8.0,41,0.00,,,0.00,Wunderground v.1.15,2013-02-10 03:15:00,
2013-02-09 22:20:00,20.0,0.0,30.23,NNW,342,2.0,2.0,41,0.00,,,0.00,Wunderground v.1.15,2013-02-10 03:20:00,
2013-02-09 22:25:00,19.9,-0.1,30.23,NNE,12,2.0,3.0,41,0.00,,,0.00,Wunderground v.1.15,2013-02-10 03:25:00,
2013-02-09 22:35:00,19.5,-0.4,30.24,NW,315,1.0,2.0,41,0.00,,,0.00,Wunderground v.1.15,2013-02-10 03:35:00,
2013-02-09 22:45:00,19.7,-0.8,30.24,North,5,4.0,6.0,40,0.00,,,0.00,Wunderground v.1.15,2013-02-10 03:45:00,
2013-02-09 22:55:00,19.4,-1.0,30.25,NW,326,3.0,4.0,40,0.00,,,0.00,Wunderground v.1.15,2013-02-10 03:55:00,
2013-02-09 23:00:00,19.4,-1.0,30.25,NNW,341,3.0,3.0,40,0.00,,,0.00,Wunderground v.1.15,2013-02-10 04:00:00,
2013-02-09 23:10:00,19.1,-1.3,30.25,North,5,2.0,3.0,40,0.00,,,0.00,Wunderground v.1.15,2013-02-10 04:10:00,
2013-02-09 23:20:00,18.8,-1.1,30.26,NNW,348,1.0,3.0,41,0.00,,,0.00,Wunderground v.1.15,2013-02-10 04:20:00,
2013-02-09 23:30:00,18.3,-1.0,30.26,NW,315,1.0,1.0,42,0.00,,,0.00,Wunderground v.1.15,2013-02-10 04:30:00,
2013-02-09 23:35:00,18.0,-0.8,30.27,NW,315,0.0,1.0,43,0.00,,,0.00,Wunderground v.1.15,2013-02-10 04:35:00,
2013-02-09 23:45:00,17.2,-0.1,30.27,NW,315,0.0,0.0,46,0.00,,,0.00,Wunderground v.1.15,2013-02-10 04:45:00,
2013-02-09 23:55:00,16.5,-0.7,30.27,NW,315,0.0,0.0,46,0.00,,,0.00,Wunderground v.1.15,2013-02-10 04:55:00,